Orange, MA

10:17 PM EST on December 09, 2019 (GMT -0500)
Orange Municipal

Weather History for KORE - October, 2019

Change the Weather History Date:

Saturday, October 26, 2019

  Actual Average Record
Temperature  
Mean Temperature 48 °F -  
Max Temperature 57 °F 53 °F 73 °F (2010)
Min Temperature 39 °F 31 °F 23 °F (1997)
Degree Days  
Heating Degree Days 17    
Moisture  
Dew Point 41 °F    
Average Humidity 80    
Maximum Humidity 97    
Minimum Humidity 39    
Precipitation  
Precipitation 0.02 in - - ()
Sea Level Pressure  
Sea Level Pressure 30.24 in    
Wind  
Wind Speed 2 mph ()    
Max Wind Speed 12 mph    
Max Gust Speed -    
Visibility 6.9 miles    
Events Fog , Rain    
Averages and records for this station are not official NWS values.
T = Trace of Precipitation, MM = Missing Value Source: Averaged Metar Reports

Daily Weather History Graph

Daily Weather History Graph

Search for Another Location

Airport or City:

Astronomy

Oct. 26, 2019 Rise Set
Actual Time 7:15 AM EDT 5:50 PM EDT
Civil Twilight 6:46 AM EDT 6:19 PM EDT
Nautical Twilight 6:13 AM EDT 6:52 PM EDT
Astronomical Twilight 5:40 AM EDT 7:25 PM EDT
Moon 5:02 AM EDT (10/26) 5:27 PM EDT (10/26)
Length of Visible Light 11h 33m
Length of Day
10h 35m
Waning Crescent, 3% of the Moon is Illuminated
Oct 26
Waning Crescent
Oct 27
New
Nov 4
First Quarter
Nov 12
Full
Nov 19
Last Quarter

Hourly Weather History & Observations

Time (EDT) Temp. Windchill Dew Point Humidity Pressure Visibility Wind Dir Wind Speed Gust Speed Precip Events Conditions
12:52 AM 48.9 °F - 46.0 °F 90% 30.20 in 8.0 mi NNW 5.8 mph - 0.00 in Rain Light Rain
1:52 AM 48.9 °F - 46.0 °F 90% 30.18 in 9.0 mi Calm Calm - 0.02 in Rain Light Rain
2:35 AM 48.0 °F - 46.0 °F 93% 30.16 in 8.0 mi Calm Calm - 0.00 in   Overcast
2:52 AM 48.0 °F - 45.0 °F 89% 30.17 in 7.0 mi NNW 4.6 mph - 0.00 in   Overcast
3:52 AM 46.9 °F - 45.0 °F 93% 30.18 in 10.0 mi Calm Calm - N/A   Overcast
4:52 AM 46.9 °F - 45.0 °F 93% 30.19 in 10.0 mi NW 3.5 mph - N/A   Overcast
5:39 AM 44.1 °F - 42.1 °F 93% 30.19 in 1.5 mi Calm Calm - N/A   Partly Cloudy
5:47 AM 44.6 °F 43.1 °F 42.8 °F 93% 30.18 in 1.2 mi SSW 3.5 mph - N/A   Clear
5:52 AM 44.1 °F - 42.1 °F 93% 30.19 in 1.0 mi Calm Calm - N/A   Clear
5:56 AM 43.0 °F - 42.1 °F 97% 30.18 in 0.8 mi Calm Calm - N/A   Mist
6:52 AM 44.1 °F 42.5 °F 42.1 °F 93% 30.21 in 0.2 mi NNW 3.5 mph - N/A Fog Fog
7:52 AM 44.1 °F 41.5 °F 42.1 °F 93% 30.24 in 0.2 mi NW 4.6 mph - N/A Fog Fog
8:52 AM 44.1 °F - 43.0 °F 96% 30.27 in 0.2 mi Calm Calm - N/A Fog Fog
9:15 AM 45.0 °F - 43.0 °F 93% 30.27 in 1.2 mi Calm Calm - N/A   Mostly Cloudy
9:20 AM 46.0 °F - 44.1 °F 93% 30.27 in 2.0 mi Calm Calm - N/A   Mostly Cloudy
9:25 AM 46.0 °F - 44.1 °F 93% 30.27 in 7.0 mi Calm Calm - N/A   Scattered Clouds
9:52 AM 51.1 °F - 43.0 °F 74% 30.28 in 10.0 mi NNW 8.1 mph - N/A   Clear
10:52 AM 52.0 °F - 39.0 °F 61% 30.29 in 10.0 mi NNW 11.5 mph - N/A   Clear
11:52 AM 54.0 °F - 39.9 °F 59% 30.28 in 10.0 mi NNW 10.4 mph - N/A   Clear
12:52 PM 55.9 °F - 32.0 °F 40% 30.26 in 10.0 mi North 8.1 mph - N/A   Clear
1:52 PM 57.0 °F - 33.1 °F 40% 30.26 in 10.0 mi NNE 4.6 mph - N/A   Partly Cloudy
2:52 PM 57.0 °F - 32.0 °F 39% 30.25 in 10.0 mi Variable 3.5 mph - N/A   Clear
3:52 PM 57.9 °F - 34.0 °F 41% 30.26 in 10.0 mi NNE 6.9 mph - N/A   Clear
4:52 PM 52.0 °F - 39.0 °F 61% 30.26 in 10.0 mi Calm Calm - N/A   Clear
5:52 PM 46.9 °F - 39.0 °F 74% 30.27 in 10.0 mi Calm Calm - N/A   Clear
6:52 PM 44.1 °F - 39.0 °F 82% 30.29 in 10.0 mi Calm Calm - N/A   Clear
7:52 PM 43.0 °F - 39.0 °F 86% 30.30 in 10.0 mi Calm Calm - N/A   Clear
9:52 PM 39.9 °F - 37.0 °F 89% 30.30 in 10.0 mi Calm Calm - N/A   Clear
10:52 PM 39.0 °F - 37.0 °F 93% 30.31 in 9.0 mi Calm Calm - N/A   Clear
11:52 PM 41.0 °F - 37.9 °F 89% 30.31 in 10.0 mi Calm Calm - N/A   Clear